CZ-2C DEB (43536 NORAD) Tracking and Keplerian Element Data

This shows tracking and keplerian element data for the satellite.

Feedback or suggestion? Click here.




ElementValue
Catalog43536
NameCZ-2C DEB
Epoch Orbit129
Epoch Day198.72078473
Epoch Year2018
RAAN269.7612
Inclination98.2859
Eccentricity0.0396113
Argument of Perigee148.2547
Mean Anonmoly214.6363
Mean Motion15.21927455
Decay Rate0.00775706
L11 43536U 18056H 18198.72078473 .00775706 13164-3 30397-2 0 9990
L22 43536 98.2859 269.7612 0396113 148.2547 214.6363 15.21927455 1299

Live tracking and technical data element details for CZ-2C DEB (NORAD 43536). CZ-2C DEB can be tracked NOW for your location showing map with azimuth and elevation plus other details from your city location.

Track the satellite on the map from your city or location and see movement details for azimuth, elevation, latitude, longitude, range, height, and movement on the map or in text.







IsCatalogInMostPopularTable: catalog: 43536, numindb: 9
Update: records affected: 1



GetName: 43536 CZ-2C DEB

Hit Count: updated at: Wed, 18 Jul 2018 20:32:27 GMT